EN

Hourly Weather Amaga

Today, 20 January, Wednesday

Time Temperature Precipitation Wind Pressure Humidity
00:00 +14°C° 0.1 mm 0 mps 604 mmHg 95%
01:00 +14°C° 0.1 mm 0 mps 604 mmHg 95%
02:00 +13°C° 0 mm 0 mps 604 mmHg 96%
03:00 +13°C° 0 mm 0 mps 603 mmHg 96%
04:00 +13°C° 0 mm 0 mps 603 mmHg 96%
05:00 +13°C° 0 mm 0 mps 603 mmHg 95%
06:00 +13°C° 0 mm 0 mps 604 mmHg 95%
07:00 +13°C° 0 mm 0 mps 604 mmHg 94%
08:00 +16°C° 0 mm 0 mps 605 mmHg 85%
09:00 +18°C° 0 mm 0 mps 606 mmHg 76%
10:00 +20°C° 0 mm 0 mps 607 mmHg 67%
11:00 +21°C° 0 mm 0 mps 607 mmHg 61%
12:00 +23°C° 0 mm 0 mps 607 mmHg 54%
13:00 +24°C° 0 mm 0 mps 607 mmHg 48%
14:00 +24°C° 0.2 mm 0 mps 607 mmHg 51%
15:00 +23°C° 0.2 mm 0 mps 606 mmHg 54%
16:00 +23°C° 0.2 mm 0 mps 606 mmHg 57%
17:00 +20°C° 0.1 mm 0 mps 605 mmHg 67%
18:00 +18°C° 0.1 mm 0 mps 605 mmHg 77%
19:00 +18°C° 0.1 mm 1 mps 604 mmHg 88%
20:00 +16°C° 0.1 mm 1 mps 604 mmHg 89%
21:00 +15°C° 0.1 mm 0 mps 605 mmHg 91%
22:00 +15°C° 0.1 mm 0 mps 605 mmHg 93%
23:00 +15°C° 0.3 mm 0 mps 605 mmHg 93%

Tomorrow, 21 January, Thursday

Time Temperature Precipitation Wind Pressure Humidity
00:00 +15°C° 0.3 mm 0 mps 605 mmHg 93%
01:00 +15°C° 0.3 mm 0 mps 605 mmHg 94%
02:00 +14°C° 0.3 mm 0 mps 604 mmHg 94%
03:00 +14°C° 0.3 mm 0 mps 604 mmHg 94%
04:00 +14°C° 0.3 mm 0 mps 604 mmHg 95%
05:00 +14°C° 0.1 mm 0 mps 604 mmHg 95%
06:00 +14°C° 0.1 mm 0 mps 605 mmHg 95%
07:00 +14°C° 0.1 mm 0 mps 605 mmHg 95%
08:00 +16°C° 0.1 mm 0 mps 606 mmHg 86%
09:00 +18°C° 0.1 mm 0 mps 607 mmHg 78%
10:00 +20°C° 0.1 mm 0 mps 608 mmHg 70%
11:00 +21°C° 0.3 mm 0 mps 608 mmHg 65%
12:00 +23°C° 0.3 mm 0 mps 607 mmHg 60%
13:00 +24°C° 0.3 mm 0 mps 607 mmHg 56%
14:00 +23°C° 0.6 mm 0 mps 607 mmHg 60%
15:00 +22°C° 0.6 mm 0 mps 606 mmHg 65%
16:00 +23°C° 0.6 mm 1 mps 605 mmHg 69%
17:00 +21°C° 0.5 mm 1 mps 605 mmHg 77%
18:00 +19°C° 0.5 mm 1 mps 604 mmHg 85%
19:00 +16°C° 0.5 mm 1 mps 604 mmHg 92%
20:00 +16°C° 0.2 mm 1 mps 604 mmHg 93%
21:00 +15°C° 0.2 mm 1 mps 605 mmHg 94%
22:00 +14°C° 0.2 mm 0 mps 605 mmHg 95%
23:00 +13°C° 0.2 mm 0 mps 605 mmHg 96%

Day after tomorrow, 22 January, Friday

Time Temperature Precipitation Wind Pressure Humidity
00:00 +13°C° 0.2 mm 0 mps 604 mmHg 96%
01:00 +13°C° 0.2 mm 0 mps 604 mmHg 96%
02:00 +13°C° 0 mm 0 mps 604 mmHg 96%
03:00 +12°C° 0 mm 0 mps 603 mmHg 97%
04:00 +12°C° 0 mm 0 mps 603 mmHg 97%
05:00 +12°C° 0 mm 0 mps 604 mmHg 96%
06:00 +13°C° 0 mm 0 mps 604 mmHg 96%
07:00 +13°C° 0 mm 0 mps 604 mmHg 96%
08:00 +15°C° 0 mm 0 mps 605 mmHg 87%
09:00 +17°C° 0 mm 0 mps 606 mmHg 78%
10:00 +19°C° 0 mm 0 mps 607 mmHg 69%
11:00 +21°C° 0.1 mm 0 mps 608 mmHg 62%
12:00 +25°C° 0.1 mm 1 mps 608 mmHg 55%
13:00 +26°C° 0.1 mm 1 mps 608 mmHg 48%
14:00 +24°C° 0.2 mm 0 mps 607 mmHg 51%
15:00 +23°C° 0.2 mm 0 mps 607 mmHg 53%
16:00 +23°C° 0.2 mm 0 mps 606 mmHg 56%
17:00 +20°C° 0.4 mm 0 mps 606 mmHg 67%
18:00 +20°C° 0.4 mm 1 mps 605 mmHg 79%
19:00 +16°C° 0.4 mm 1 mps 604 mmHg 90%
20:00 +16°C° 0.6 mm 1 mps 605 mmHg 92%
21:00 +14°C° 0.6 mm 0 mps 605 mmHg 94%
22:00 +14°C° 0.6 mm 0 mps 605 mmHg 95%
23:00 +14°C° 0.6 mm 0 mps 605 mmHg 96%

23 January, Saturday

Time Temperature Precipitation Wind Pressure Humidity
00:00 +13°C° 0.6 mm 0 mps 605 mmHg 96%
01:00 +13°C° 0.6 mm 0 mps 605 mmHg 96%
02:00 +13°C° 0.2 mm 0 mps 604 mmHg 97%
03:00 +13°C° 0.2 mm 0 mps 604 mmHg 97%
04:00 +13°C° 0.2 mm 0 mps 604 mmHg 97%
05:00 +13°C° 0 mm 0 mps 604 mmHg 97%
06:00 +13°C° 0 mm 0 mps 605 mmHg 96%
07:00 +13°C° 0 mm 0 mps 605 mmHg 96%
08:00 +15°C° 0 mm 0 mps 606 mmHg 88%
09:00 +17°C° 0 mm 0 mps 607 mmHg 79%
10:00 +20°C° 0 mm 0 mps 608 mmHg 70%
11:00 +21°C° 0.4 mm 0 mps 608 mmHg 67%
12:00 +22°C° 0.4 mm 0 mps 608 mmHg 63%
13:00 +23°C° 0.4 mm 0 mps 608 mmHg 60%
14:00 +22°C° 0.8 mm 0 mps 607 mmHg 63%
15:00 +22°C° 0.8 mm 0 mps 606 mmHg 66%
16:00 +21°C° 0.8 mm 0 mps 605 mmHg 69%
17:00 +21°C° 0.6 mm 1 mps 605 mmHg 77%
18:00 +19°C° 0.6 mm 1 mps 605 mmHg 85%
19:00 +16°C° 0.6 mm 1 mps 604 mmHg 93%
20:00 +16°C° 0.3 mm 1 mps 604 mmHg 94%
21:00 +15°C° 0.3 mm 1 mps 605 mmHg 95%
22:00 +15°C° 0.3 mm 1 mps 605 mmHg 96%
23:00 +13°C° 0.1 mm 0 mps 605 mmHg 96%

24 January, Sunday

Time Temperature Precipitation Wind Pressure Humidity
00:00 +13°C° 0.1 mm 0 mps 604 mmHg 96%
01:00 +13°C° 0.1 mm 0 mps 604 mmHg 96%
02:00 +13°C° 0 mm 0 mps 604 mmHg 96%
03:00 +12°C° 0 mm 0 mps 603 mmHg 96%
04:00 +12°C° 0 mm 0 mps 603 mmHg 96%
05:00 +12°C° 0 mm 0 mps 603 mmHg 96%
06:00 +12°C° 0 mm 0 mps 604 mmHg 96%
07:00 +13°C° 0 mm 0 mps 604 mmHg 95%
08:00 +15°C° 0 mm 0 mps 605 mmHg 87%
09:00 +17°C° 0 mm 0 mps 606 mmHg 79%
10:00 +19°C° 0 mm 0 mps 607 mmHg 71%
11:00 +20°C° 0.2 mm 0 mps 607 mmHg 66%
12:00 +22°C° 0.2 mm 0 mps 607 mmHg 62%
13:00 +23°C° 0.2 mm 0 mps 607 mmHg 57%
14:00 +23°C° 0.6 mm 0 mps 606 mmHg 60%
15:00 +22°C° 0.6 mm 0 mps 606 mmHg 63%
16:00 +21°C° 0.6 mm 0 mps 605 mmHg 66%
17:00 +19°C° 0.4 mm 0 mps 604 mmHg 74%
18:00 +19°C° 0.4 mm 1 mps 604 mmHg 83%
19:00 +16°C° 0.4 mm 1 mps 604 mmHg 92%
20:00 +16°C° 0.6 mm 1 mps 604 mmHg 93%
21:00 +15°C° 0.6 mm 1 mps 604 mmHg 94%
22:00 +14°C° 0.6 mm 0 mps 604 mmHg 95%
23:00 +14°C° 0.1 mm 0 mps 604 mmHg 95%

25 January, Monday

Time Temperature Precipitation Wind Pressure Humidity
00:00 +13°C° 0.1 mm 0 mps 604 mmHg 96%
01:00 +13°C° 0.1 mm 0 mps 603 mmHg 96%
02:00 +13°C° 0 mm 0 mps 603 mmHg 96%
03:00 +13°C° 0 mm 0 mps 603 mmHg 96%
04:00 +13°C° 0 mm 0 mps 603 mmHg 96%
05:00 +13°C° 0 mm 0 mps 603 mmHg 96%
06:00 +13°C° 0 mm 0 mps 603 mmHg 95%
07:00 +13°C° 0 mm 0 mps 604 mmHg 95%
08:00 +15°C° 0 mm 0 mps 605 mmHg 86%
09:00 +18°C° 0 mm 0 mps 606 mmHg 77%
10:00 +20°C° 0 mm 0 mps 607 mmHg 68%
11:00 +21°C° 0.3 mm 0 mps 607 mmHg 64%
12:00 +22°C° 0.3 mm 0 mps 607 mmHg 60%
13:00 +24°C° 0.3 mm 0 mps 607 mmHg 55%
14:00 +23°C° 0.6 mm 0 mps 606 mmHg 58%
15:00 +22°C° 0.6 mm 0 mps 605 mmHg 61%
16:00 +24°C° 0.6 mm 1 mps 604 mmHg 64%
17:00 +22°C° 0.4 mm 1 mps 604 mmHg 72%
18:00 +20°C° 0.4 mm 1 mps 604 mmHg 81%
19:00 +18°C° 0.4 mm 1 mps 603 mmHg 90%
20:00 +16°C° 0.2 mm 1 mps 604 mmHg 91%
21:00 +15°C° 0.2 mm 0 mps 604 mmHg 93%
22:00 +14°C° 0.2 mm 0 mps 604 mmHg 94%
23:00 +14°C° 0.1 mm 0 mps 604 mmHg 95%
Show more